Zurück zum Katalog

WESTFORD NEEDLES

AktivPO
NORAD 18615·DEBRIS·🇺🇸 United States

Gestartet May 9, 1963 von Vandenberg Space Force Base

Loading…

Nächste Überflüge (nächste 24 Stunden)

TLE

AlterndSource: Space-Track

Epoche: Sep 5, 2026, 12:54 UTC

1 18615U 63014DK  26248.53818595  .00000090  00000-0  54035-2 0  9999
2 18615  86.2449  92.5218 1899271  23.8758   2.3093  8.77027325 50174

Verfolge WESTFORD NEEDLES in Echtzeit mit AllMySat

Download on the App Store